Other Public Products
Issued by NWS Grand Forks, ND

Home | Current Version | Previous Version | Text Only | Print | Product List | Glossary Off
Versions: 1 2 3 4 5 6 7 8 9 10 11 12 13 14 15 16 17 18 19 20 21 22 23 24 25 26 27 28 29 30 31 32 33 34 35 36 37 38 39 40 41 42 43 44 45 46 47 48 49 50

000
FPUS83 KFGF 240110
OPUFGF
PRAIRIE TO PINES WEATHER ROUNDUP
NATIONAL WEATHER SERVICE EASTERN NORTH DAKOTA/GRAND FORKS ND
800 PM CDT WED JUL 23 2014

 **SATELLITE DATA USED TO AUGMENT SKY COVER AT AUTOMATED STATIONS**
 *****  WEATHER ACROSS EASTERN NORTH DAKOTA  *****

CITY           SKY/WX    TMP DP  RH WIND       PRES   REMARKS
GRAND FORKS    MOSUNNY   73  58  59 N5        30.19F
GRAND FORKS AF SUNNY     71  60  66 NE6       30.20F
GRAND CITY NWS   N/A     72 N/A N/A N2          N/A
BUXTON         NOT AVBL
DEVILS LAKE    SUNNY     72  57  60 E10       30.17F
FARGO          SUNNY     75  58  55 NE6       30.19F
WAHPETON ARPT  CLEAR     73  54  49 E5        30.19S
$$

 *****  WEATHER ACROSS CENTRAL AND WESTERN NORTH DAKOTA  *****

CITY           SKY/WX    TMP DP  RH WIND       PRES   REMARKS
JAMESTOWN      MOSUNNY   74  61  63 SE6       30.17F
BISMARCK       SUNNY     80  60  50 SE14      30.12F
MINOT          PTSUNNY   74  65  73 E14       30.11F
MINOT AFB      MOSUNNY   74  67  79 E16       30.11F
GARRISON         N/A     77  65  66 SE10      30.10F
WILLISTON      MOSUNNY   85  61  44 SE16G24   30.04F
DICKINSON      MOSUNNY   78  63  59 SE13      30.06F
HETTINGER      MOSUNNY   79  59  50 SE20      30.08S
$$

 *****  OTHER OBSERVATIONS NORTHEAST NORTH DAKOTA  *****

CITY           SKY/WX    TMP DP  RH WIND       PRES   REMARKS
WALHALLA         N/A     70  54  56 E5          N/A
LANGDON        FAIR      68  55  64 E10       30.21F
CAVALIER       FAIR      72  50  46 CALM      30.20F
GRAFTON        FAIR      72  54  53 CALM      30.20F
CANDO          FAIR      70  59  68 SE8       30.19F
FORT TOTTEN    NOT AVBL
ROLLA          CLOUDY    68  61  77 SE7       30.21S
RUGBY          FAIR      68  63  83 E12G17    30.17S
 ***** THE ABOVE OBSERVATIONS ARE NON NWS ARE NOT QUALITY
        CONTROLLED AND MAY MIS-REPORT RAIN FOR SNOW...
$$

 *****  OTHER OBSERVATIONS SOUTHEAST NORTH DAKOTA *****

CITY           SKY/WX    TMP DP  RH WIND       PRES   REMARKS
COOPERSTOWN    NOT AVBL
VALLEY CITY    FAIR      73  59  60 E7        30.19F
OAKES          NOT AVBL
GWINNER        CLEAR     75  57  53 E6        30.19F
BUFFALO        NOT AVBL
WYNDMERE       NOT AVBL
 ***** THE ABOVE OBSERVATIONS ARE NON NWS ARE NOT QUALITY
       CONTROLLED AND MAY MIS-REPORT RAIN FOR SNOW...
$$

  *****  WEATHER ACROSS NORTHERN MINNESOTA  *****

CITY           SKY/WX    TMP DP  RH WIND       PRES   REMARKS
FLAG ISLAND    CLEAR     70  48  46 E3        30.20F
WARROAD        NOT AVBL
ROSEAU         SUNNY     68  57  68 E3        30.21F
HALLOCK        SUNNY     73  50  43 CALM      30.19F
THF RVR FALLS  SUNNY     70  55  60 W8        30.20S
HALSTAD          N/A     75  55  50 N2          N/A
FOSSTON        PTCLDY    73  59  60 CALM      30.20F
BAUDETTE       CLEAR     68  50  52 W5        30.22F
WASKISH        PTCLDY    70  55  60 CALM      30.20S
CROOKSTON      SUNNY     72  59  64 N5        30.20F
$$
  *****  WEATHER ACROSS CENTRAL AND WEST MINNESOTA  *****

CITY           SKY/WX    TMP DP  RH WIND       PRES   REMARKS
BEMIDJI        PTCLDY    71  54  55 N6        30.20F
PARK RAPIDS    CLEAR     73  53  49 N6        30.20F
WADENA         CLEAR     70  55  60 N7        30.20F
DETROIT LAKES  CLEAR     72  55  56 NW3       30.22F
MOORHEAD       CLEAR     73  61  64 NE5       30.20S
FERGUS FALLS   CLEAR     73  55  53 NE5       30.19S
ELBOW LAKE     FAIR      73  58  59 N3        30.19F
MORRIS MN      CLEAR     73  63  68 NE3       30.18F
STAPLES        CLEAR     72  54  53 N3        30.20S
WHEATON        CLEAR     73  59  60 CALM      30.19F
$$
  *****  WEATHER ELSEWHERE ACROSS MINNESOTA  *****

CITY           SKY/WX    TMP DP  RH WIND       PRES   REMARKS
DULUTH         PTCLDY    68  54  60 E5        30.19F
INTRNTL FALLS  CLEAR     68  50  52 CALM      30.20F
ELY            CLEAR     66  48  52 CALM      30.21F
CLOQUET        CLEAR     72  50  46 N3        30.19S
BRAINERD       CLEAR     73  53  49 N3        30.20S
HIBBING        CLEAR     71  50  47 N5        30.20F
ALEXANDRIA     CLEAR     75  54  47 N6        30.21F
SAINT CLOUD    CLEAR     78  51  38 N3        30.18F
MINNEAPOLIS    PTCLDY    78  51  38 N6        30.16F
$$

  *****  WEATHER ACROSS SOUTH DAKOTA  *****

CITY           SKY/WX    TMP DP  RH WIND       PRES   REMARKS
SIOUX FALLS    PTCLDY    75  56  51 NE10      30.17F
BROOKINGS      NOT AVBL
WATERTOWN      CLEAR     75  54  47 VRB7      30.20S
HURON          SUNNY     76  55  48 E10       30.15F
SISSETON         N/A     75  61  61 SE5       30.17F
ABERDEEN       MOSUNNY   76  57  51 SE7       30.16F
MITCHELL       CLEAR     78  60  53 E7        30.15F
PIERRE         MOSUNNY   81  52  36 E17       30.08F
MOBRIDGE       SUNNY     80  57  45 SE18      30.08F
RAPID CITY     SUNNY     82  66  58 SE10      30.07F
$$

  *****  SOME WEATHER IN NEARBY STATES *****

CITY           SKY/WX    TMP DP  RH WIND       PRES   REMARKS
GLASGOW MT     PTSUNNY   90  59  35 E17       29.92F
GREAT FALLS MT SUNNY     91  47  21 CALM      29.90F
CHEYENNE WY    MOSUNNY   78  61  55 S16G25    30.27F
SCOTTSBLUFF NE CLOUDY    89  67  47 SE8       30.11F HX  92
OMAHA NE       CLEAR     81  60  48 NE8       30.14S
DES MOINES IA  PTCLDY    79  56  45 E9        30.14S
DAVENPORT IA   CLEAR     73  59  61 N6        30.13S
CHICAGO IL     PTCLDY    65  49  56 N12       30.14F
EAU CLAIRE WI  CLEAR     75  56  51 NE5       30.16R
LA CROSSE WI   PTCLDY    78  57  48 NW8       30.13F
$$

  *****  SOME NATIONAL WEATHER *****

CITY           SKY/WX    TMP DP  RH WIND       PRES   REMARKS
LA GUARDIA NY  CLOUDY    85  71  63 SW12G20   29.80R THUNDER HX  90
RALEIGH NC     PTCLDY    79  69  71 SW8       29.93S
ATLANTA GA     PTCLDY    80  69  69 CALM      29.99F
NEW ORLEANS LA MOCLDY    79  72  79 S5        29.99R
OKLAHOMA CITY  CLOUDY    88  76  67 E8        30.06R HX  99
ALBUQUERQUE NM PTSUNNY   89  48  24 SE8       30.27S
SALT LAKE CITY PTSUNNY  101  35  10 S22G30    29.93F HX  95
LOS ANGELES CA MOSUNNY   75  60  59 SW15      29.89F
BOISE ID       MOSUNNY   94  37  13 SW10      29.88S
SEATTLE WA     PTSUNNY   61  57  87 S8        30.06S
$$

*** WEATHER ACROSS MANITOBA...SASKATCHEWAN AND ONTARIO ***
                ***ONTARIO***

CITY           SKY/WX    TMP DP  RH WIND       PRES   REMARKS
GERALDTON      CLOUDY    64  50  59 W7        30.12F
THUNDER BAY    PTCLDY    68  48  49 W3        30.17F
SIOUX LOOKOUT  PTCLDY    66  48  52 W5        30.19F
TORONTO        PTCLDY    66  54  63 N14       30.00S
BIG TROUT LK   LGT RAIN  64  54  68 NW5       30.02F
PICKLE LAKE    CLOUDY    70  48  46 NW7       30.13F
DRYDEN         CLEAR     68  46  45 W5        30.21F
KENORA         PTCLDY    70  48  46 W3        30.22F
$$
                *** MANITOBA***

CITY           SKY/WX    TMP DP  RH WIND       PRES   REMARKS
BRANDON        MOSUNNY   70  55  60 E10       30.19F
DAUPHIN        SUNNY     70  52  52 SE14      30.18F
ISLAND LAKE    MOSUNNY   75  50  41 W5        30.11F
PILOT MOUND      N/A     68  57  68 E7          N/A
THE PAS        MOSUNNY   75  54  46 S6        30.12F
THOMPSON       MOSUNNY   79  50  36 W6        30.07F
WINNIPEG       MOSUNNY   70  54  56 N2        30.21S
LYNN LAKE      SUNNY     79  41  25 NW3       30.07F
CHURCHILL      MOSUNNY   66  54  63 E5        30.03S
GILLAM         PTSUNNY   75  54  46 W7        30.03F
$$
                ***SASKATCHEWAN***

CITY           SKY/WX    TMP DP  RH WIND       PRES   REMARKS
ESTEVAN        MOSUNNY   72  64  78 E15       30.11F
KINDERSLEY     MOSUNNY   75  59  57 SE16G25   29.96F
LLOYDMINSTER   TSTM      64  61  88 SE15G30   29.97F
PRINCE ALBERT  PTSUNNY   72  61  68 SE7       30.08F
REGINA         PTSUNNY   73  63  68 SE23      30.07F
YORKTON        SUNNY     72  55  56 SE8       30.15F



USA.gov is the U.S. government's official web portal to all federal, state and local government web resources and services.